Chetumal, Mexico

9:48 AM on March 30, 2017 (GMT +0000)
Chetumal International

Weather History for MMCM - January, 2013

Change the Weather History Date:

Monday, January 21, 2013

  Actual Average Record
Temperature  
Mean Temperature 75 °F -  
Max Temperature 89 °F 81 °F 91 °F (2017)
Min Temperature 61 °F 68 °F 55 °F (2009)
Cooling Degree Days 10    
Growing Degree Days 25 (Base 50)    
Moisture  
Dew Point 71 °F    
Average Humidity 78    
Maximum Humidity 97    
Minimum Humidity 37    
Precipitation  
Precipitation 0.00 in - - ()
Sea Level Pressure  
Sea Level Pressure 30.04 in    
Wind  
Wind Speed 2 mph ()    
Max Wind Speed 12 mph    
Max Gust Speed -    
Visibility 6.5 miles    
Events      
Averages and records for this station are not official NWS values.
T = Trace of Precipitation, MM = Missing Value Source: Averaged Metar Reports

Daily Weather History Graph

Daily Weather History Graph

Search for Another Location

Airport or City:

Trip Planner

Search our weather history database for the weather conditions in past years. The results will help you decide how hot, cold, wet, or windy it might be!

Date:

Astronomy

Jan. 21, 2013 Rise Set
Actual Time 6:28 AM CST 5:40 PM CST
Civil Twilight 6:05 AM CST 6:04 PM CST
Nautical Twilight 5:38 AM CST 6:30 PM CST
Astronomical Twilight 5:12 AM CST 6:57 PM CST
Moon 1:23 PM CST (1/21) 1:55 AM CST (1/21)
Length of Visible Light 11h 58m
Length of Day
11h 12m
Waxing Gibbous, 75% of the Moon is Illuminated
Jan 21
Waxing Gibbous
Jan 26
Full
Feb 3
Last Quarter
Feb 10
New
Feb 17
First Quarter

Hourly Weather History & Observations

Time (CST) Temp. Heat Index Dew Point Humidity Pressure Visibility Wind Dir Wind Speed Gust Speed Precip Events Conditions
2:45 AM 62 °F - 61 °F 97% 30.03 in 5 mi NW 2.2 mph - -   Scattered Clouds
5:45 AM 63 °F - 62 °F 96% 30.04 in 5 mi NNW 2.2 mph - -   Scattered Clouds
6:10 AM 77.0 °F - 73.4 °F 89% 30.04 in 7.0 mi Calm Calm - N/A   Scattered Clouds
7:10 AM 77.0 °F - 73.4 °F 89% 30.07 in 7.0 mi Calm Calm - N/A   Scattered Clouds
7:51 AM 77.0 °F - 73.4 °F 89% 30.09 in 7.0 mi Calm Calm - N/A   Scattered Clouds
8:50 AM 72 °F - 67 °F 79% 30.09 in 6 mi NNW 4.5 mph - -   Scattered Clouds
8:51 AM 78.8 °F - 73.4 °F 83% 30.10 in 7.0 mi Calm Calm - N/A   Scattered Clouds
9:51 AM 80.6 °F 86.2 °F 75.2 °F 84% 30.10 in 7.0 mi Calm Calm - N/A   Scattered Clouds
10:51 AM 84.2 °F 96.1 °F 78.8 °F 84% 30.08 in 7.0 mi NNW 11.5 mph - N/A   Scattered Clouds
11:50 AM 87 °F - 69 °F 46% 30.08 in 6 mi NNE 4.5 mph - -   Scattered Clouds
11:51 AM 84.2 °F 96.1 °F 78.8 °F 84% 30.06 in 7.0 mi North - - N/A   Scattered Clouds
12:51 PM 84.2 °F 96.1 °F 78.8 °F 84% 30.04 in 7.0 mi North 11.5 mph - N/A   Scattered Clouds
1:45 PM 84.2 °F 94.1 °F 77.0 °F 79% 30.01 in 7.0 mi NNW 4.6 mph - N/A   Scattered Clouds
2:43 PM 82.4 °F 88.2 °F 73.4 °F 74% 30.01 in 7.0 mi Calm Calm - N/A   Mostly Cloudy
2:45 PM 82.4 °F 88.2 °F 73.4 °F 74% 30.01 in 7.0 mi Calm Calm - N/A   Mostly Cloudy
2:50 PM 87 °F - 64 °F 37% 30.00 in 6 mi ESE 4.5 mph - -   Mostly Cloudy
3:50 PM 82.4 °F 88.2 °F 73.4 °F 74% 29.98 in 7.0 mi Calm Calm - N/A   Mostly Cloudy
4:00 PM 82.4 °F 88.2 °F 73.4 °F 74% 29.98 in 7.0 mi Calm Calm - N/A   Mostly Cloudy
4:40 PM 82.4 °F 88.2 °F 73.4 °F 74% 29.99 in 7.0 mi Calm Calm - N/A   Mostly Cloudy
5:40 PM 78.8 °F - 68.0 °F 69% 30.01 in 7.0 mi NNE 6.9 mph - N/A   Scattered Clouds
5:50 PM 80 °F - 68 °F 59% 30.02 in 5 mi ESE 4.5 mph - -   Scattered Clouds
7:10 PM 77.0 °F - 68.0 °F 74% 30.03 in 7.0 mi Calm Calm - N/A   Scattered Clouds
7:42 PM 77.0 °F - 68.0 °F 74% 30.04 in 7.0 mi Calm Calm - N/A   Scattered Clouds
8:40 PM 77.0 °F - 68.0 °F 74% 30.05 in 7.0 mi Calm Calm - N/A   Scattered Clouds
8:50 PM 74 °F - 72 °F 94% 30.07 in 5 mi ESE 2.2 mph - -   Scattered Clouds
9:40 PM 75.2 °F - 66.2 °F 73% 30.07 in 7.0 mi Calm Calm - N/A   Clear
11:50 PM 67 °F - 65 °F 89% 30.07 in 5 mi Calm Calm - -   Scattered Clouds